sat.trackr.live / text

‹ back to catalog

STARLINK-33719

NORAD 63578 · 2025-076K

PAYLOAD ACTIVE UNKNOWN

§ Identity

Operator
Country
US
Launch date
2025-04-14
Launch site
AFETR
Launch vehicle
Mass (kg)
RCS (m²)

Purposes: comms

External: N2YO · Heavens-Above · Gunter

§ Orbital elements

Epoch: 2026-05-25T00:16:22.890720Z

Period
94.27 min
Inclination
43.0008°
Eccentricity
0.0001814
Mean motion
15.27576626 rev/d
Perigee alt
481.8 km
Apogee alt
484.3 km
Semi-major
6,861.2 km
B*
6.3065e-4
RAAN
250.6043°
Arg perigee
268.4705°
Mean anomaly
91.5939°
Rev number
6,350

§ Raw data

STARLINK-337191 63578U 25076K   26145.01137605  .00017131  00000+0  63065-3 0  99952 63578  43.0008 250.6043 0001814 268.4705  91.5939 15.27576626 63509

JSON: /api/v1/satellites/63578 · /tle

For live sub-satellite position, see the globe view (requires WebGL).

§ Visibility from observer

Set your observer location to see the next 7 days of passes ≥ 10°. The values pass through the URL so the page stays shareable.

No JS? Fill the form by hand. The geolocation button needs JavaScript.